Sudbury Airport
CYSB : now visible

Airfield :











YOU CAN JOIN US ON...

 
LOGIN :

Register | Disclaimer

   EN    FR    IT 

 









Legend :    VFR   Marginal VFR   IFR   Intensive IFR   Very Intensive IFR
Visi :
Ceiling :
>= 8 km
>= 3000ft
5 to 8 km
1000 to 3000 ft
1500m to 5 km
500 to 1000 ft
800 to 1500m
200 to 500 ft
< 800m
< 200 ft
Symbols :   Thunderstorms  Fog  Heavy snow  Heavy precipitations  Wind > 20 kt






- Airport Elevation : 1141 ft
- IATA code : YSB


CYSB - Sudbury

CURRENT METAR :
  • 150500Z 02002KT 15SM OVC120 04/01 A2983 RMK AC8 SLP113

EXPIRED METARs :
  • 150400Z 07002KT 15SM SCT045 BKN100 04/00 A2984 RMK SC3AC4 SLP116
  • 150300Z 36004KT 15SM BKN055 BKN120 05/M01 A2986 RMK SC5AC2 SLP121

TAF TAF CYSB
Valid from the 15 at 02:00 until the 15 at 14:00 UTC


150138Z 1502/1514 24005KT P6SM BKN040 BKN120
PROB30 1505/1514 1/2SM -DZ FG BKN002 RMK NXT FCST BY 150800Z
CZYZ FIR / North America



MET'MAP, your aeronautical weather chart ! - Copyright ORBIFLY December 2007 - Disclaimer

ORBIFLY MET'MAP TEAM :

Programming & Development : Alexandra Zaïnal
Concept & original design : Baudouin d'Aumeries
Assistance for programming : Marc-Olivier Méhu
Technical & hardware support : Manuel Goepfert

Contact : metmap@orbifly.com




SOURCES & CREDITS :

   NOAA       Earth
Advisory